| time (UTC) | temp C | wind direction | speed KPH | gust KPH | rain 1hr cm | rain 24hr cm | rain mn cm | humidity % | barometer mb |
| 20260507223839 | 16 | 311 | 8.0 | 17.7 | 0.00 | 0.23 | 0.03 | 33 | 1006.5 |
| 20260507223357 | 16 | 331 | 9.7 | 17.7 | 0.00 | 0.23 | 0.03 | 33 | 1006.4 |
| 20260507222855 | 16 | 267 | 11.3 | 16.1 | 0.00 | 0.23 | 0.03 | 32 | 1006.2 |
| 20260507222332 | 16 | 298 | 6.4 | 14.5 | 0.00 | 0.23 | 0.03 | 32 | 1006.2 |
| 20260507221830 | 16 | 292 | 9.7 | 24.1 | 0.00 | 0.23 | 0.03 | 32 | 1006.1 |
| 20260507221328 | 16 | 309 | 12.9 | 24.1 | 0.00 | 0.23 | 0.03 | 30 | 1005.9 |
| 20260507220826 | 16 | 300 | 11.3 | 22.5 | 0.00 | 0.23 | 0.03 | 32 | 1006.0 |
| 20260507220321 | 16 | 287 | 14.5 | 22.5 | 0.00 | 0.23 | 0.03 | 31 | 1006.0 |
| 20260507215906 | 16 | 303 | 14.5 | 22.5 | 0.00 | 0.23 | 0.03 | 32 | 1005.9 |
| 20260507215321 | 16 | 306 | 6.4 | 14.5 | 0.00 | 0.30 | 0.03 | 34 | 1006.0 |
| 20260507214906 | 16 | 313 | 6.4 | 17.7 | 0.00 | 0.30 | 0.03 | 34 | 1005.9 |
| 20260507214408 | 16 | 285 | 11.3 | 25.7 | 0.00 | 0.30 | 0.03 | 32 | 1005.9 |
| 20260507213911 | 16 | 280 | 11.3 | 27.4 | 0.00 | 0.30 | 0.03 | 32 | 1005.8 |
| 20260507213325 | 16 | 311 | 16.1 | 27.4 | 0.00 | 0.30 | 0.03 | 32 | 1005.8 |
| 20260507212824 | 16 | 273 | 8.0 | 25.7 | 0.00 | 0.30 | 0.03 | 33 | 1005.9 |
| 20260507212404 | 16 | 306 | 12.9 | 25.7 | 0.00 | 0.30 | 0.03 | 33 | 1005.8 |
| 20260507211817 | 17 | 300 | 9.7 | 30.6 | 0.00 | 0.30 | 0.03 | 32 | 1005.8 |
| 20260507211317 | 17 | 318 | 11.3 | 30.6 | 0.00 | 0.30 | 0.03 | 33 | 1005.9 |
| 20260507210833 | 17 | 321 | 6.4 | 17.7 | 0.00 | 0.30 | 0.03 | 33 | 1005.9 |
| 20260507210418 | 16 | 298 | 9.7 | 22.5 | 0.00 | 0.30 | 0.03 | 33 | 1005.9 |
| 20260507205834 | 17 | 260 | 9.7 | 22.5 | 0.00 | 0.30 | 0.03 | 32 | 1005.8 |
| 20260507205352 | 17 | 326 | 9.7 | 20.9 | 0.00 | 0.46 | 0.03 | 34 | 1005.8 |
| 20260507204827 | 17 | 69 | 6.4 | 16.1 | 0.00 | 0.46 | 0.03 | 35 | 1005.5 |
| 20260507204412 | 17 | 257 | 8.0 | 22.5 | 0.00 | 0.46 | 0.03 | 32 | 1005.6 |
| 20260507203827 | 17 | 295 | 6.4 | 20.9 | 0.00 | 0.46 | 0.03 | 35 | 1005.8 |
| 20260507203323 | 17 | 280 | 9.7 | 19.3 | 0.00 | 0.46 | 0.03 | 33 | 1005.7 |
| 20260507202841 | 17 | 289 | 9.7 | 19.3 | 0.00 | 0.46 | 0.03 | 35 | 1005.7 |
| 20260507202400 | 17 | 290 | 6.4 | 22.5 | 0.00 | 0.46 | 0.03 | 34 | 1005.7 |
| 20260507201835 | 17 | 330 | 8.0 | 22.5 | 0.00 | 0.46 | 0.03 | 33 | 1005.8 |
| 20260507201353 | 17 | 281 | 6.4 | 17.7 | 0.00 | 0.46 | 0.03 | 36 | 1005.8 |
| 20260507200831 | 17 | 276 | 11.3 | 16.1 | 0.00 | 0.46 | 0.03 | 35 | 1005.9 |
| 20260507200410 | 17 | 312 | 6.4 | 17.7 | 0.00 | 0.46 | 0.03 | 36 | 1005.8 |
| 20260507195823 | 17 | 284 | 9.7 | 17.7 | 0.00 | 0.46 | 0.03 | 34 | 1005.8 |
| 20260507195340 | 17 | 289 | 8.0 | 17.7 | 0.00 | 0.56 | 0.03 | 35 | 1005.9 |
| 20260507194816 | 17 | 283 | 6.4 | 20.9 | 0.00 | 0.56 | 0.03 | 34 | 1005.9 |
| 20260507194334 | 16 | 296 | 8.0 | 20.9 | 0.00 | 0.56 | 0.03 | 33 | 1005.9 |
| 20260507193852 | 17 | 286 | 9.7 | 19.3 | 0.00 | 0.56 | 0.03 | 36 | 1005.9 |
| 20260507193348 | 17 | 287 | 4.8 | 16.1 | 0.00 | 0.56 | 0.03 | 35 | 1006.0 |
| 20260507192822 | 18 | 322 | 3.2 | 22.5 | 0.00 | 0.56 | 0.03 | 36 | 1006.1 |
| 20260507192321 | 17 | 300 | 6.4 | 22.5 | 0.00 | 0.56 | 0.03 | 36 | 1006.2 |
| 20260507191841 | 17 | 280 | 8.0 | 22.5 | 0.00 | 0.56 | 0.03 | 35 | 1006.2 |
| 20260507191338 | 18 | 264 | 8.0 | 14.5 | 0.00 | 0.56 | 0.03 | 36 | 1006.1 |
| 20260507190835 | 17 | 329 | 1.6 | 16.1 | 0.00 | 0.56 | 0.03 | 37 | 1006.2 |
| 20260507190330 | 17 | 338 | 4.8 | 24.1 | 0.00 | 0.56 | 0.03 | 36 | 1006.3 |
| 20260507185828 | 17 | 319 | 11.3 | 25.7 | 0.00 | 0.56 | 0.03 | 37 | 1006.3 |
| 20260507185413 | 17 | 319 | 11.3 | 25.7 | 0.00 | 0.56 | 0.03 | 36 | 1006.4 |
| 20260507184828 | 17 | 290 | 8.0 | 22.5 | 0.00 | 0.56 | 0.03 | 36 | 1006.4 |
| 20260507184410 | 17 | 234 | 12.9 | 22.5 | 0.00 | 0.56 | 0.03 | 35 | 1006.4 |
| 20260507183842 | 17 | 274 | 11.3 | 27.4 | 0.00 | 0.56 | 0.03 | 35 | 1006.4 |
| 20260507183319 | 17 | 278 | 14.5 | 27.4 | 0.00 | 0.56 | 0.03 | 34 | 1006.5 |
| 20260507182817 | 17 | 294 | 16.1 | 27.4 | 0.00 | 0.56 | 0.03 | 35 | 1006.4 |
| 20260507182334 | 17 | 310 | 12.9 | 24.1 | 0.00 | 0.56 | 0.03 | 35 | 1006.4 |
| 20260507181830 | 17 | 263 | 9.7 | 24.1 | 0.00 | 0.56 | 0.03 | 36 | 1006.4 |
| 20260507181327 | 17 | 298 | 4.8 | 22.5 | 0.00 | 0.56 | 0.03 | 37 | 1006.4 |
| 20260507180912 | 17 | 309 | 12.9 | 22.5 | 0.00 | 0.56 | 0.03 | 34 | 1006.6 |
| 20260507180323 | 17 | 278 | 11.3 | 27.4 | 0.00 | 0.56 | 0.03 | 35 | 1006.5 |
| 20260507175840 | 17 | 324 | 12.9 | 27.4 | 0.00 | 0.56 | 0.03 | 35 | 1006.5 |
| 20260507175405 | 17 | 260 | 16.1 | 25.7 | 0.00 | 0.56 | 0.03 | 35 | 1006.4 |
| 20260507174820 | 17 | 319 | 8.0 | 20.9 | 0.00 | 0.56 | 0.03 | 38 | 1006.2 |
| 20260507174335 | 17 | 287 | 11.3 | 22.5 | 0.00 | 0.56 | 0.03 | 37 | 1006.4 |
| 20260507173852 | 17 | 271 | 9.7 | 22.5 | 0.00 | 0.56 | 0.03 | 37 | 1006.3 |
| 20260507173417 | 17 | 319 | 4.8 | 19.3 | 0.00 | 0.56 | 0.03 | 41 | 1006.2 |
| 20260507172918 | 16 | 294 | 8.0 | 32.2 | 0.00 | 0.56 | 0.03 | 38 | 1006.5 |
| 20260507172350 | 17 | 309 | 17.7 | 32.2 | 0.00 | 0.56 | 0.03 | 34 | 1006.6 |
| 20260507171846 | 17 | 337 | 4.8 | 20.9 | 0.00 | 0.56 | 0.03 | 40 | 1006.4 |
| 20260507171322 | 16 | 316 | 9.7 | 19.3 | 0.00 | 0.56 | 0.03 | 38 | 1006.6 |
| 20260507170820 | 16 | 300 | 8.0 | 29.0 | 0.00 | 0.56 | 0.03 | 38 | 1006.8 |
| 20260507170423 | 16 | 283 | 12.9 | 29.0 | 0.00 | 0.56 | 0.03 | 35 | 1006.8 |
| 20260507165858 | 17 | 306 | 12.9 | 22.5 | 0.00 | 0.56 | 0.03 | 39 | 1006.8 |
| 20260507165332 | 16 | 315 | 8.0 | 17.7 | 0.00 | 0.56 | 0.03 | 43 | 1006.7 |
| 20260507164849 | 16 | 281 | 6.4 | 22.5 | 0.00 | 0.56 | 0.03 | 44 | 1006.9 |
| 20260507164326 | 16 | 294 | 9.7 | 20.9 | 0.00 | 0.56 | 0.03 | 50 | 1006.8 |
| 20260507163823 | 16 | 261 | 8.0 | 17.7 | 0.00 | 0.56 | 0.03 | 49 | 1006.9 |
| 20260507163408 | 16 | 267 | 9.7 | 16.1 | 0.00 | 0.56 | 0.03 | 50 | 1006.9 |
| 20260507162821 | 15 | 275 | 6.4 | 20.9 | 0.00 | 0.56 | 0.03 | 54 | 1007.0 |
| 20260507162339 | 15 | 238 | 11.3 | 20.9 | 0.00 | 0.56 | 0.03 | 54 | 1007.1 |
| 20260507161856 | 16 | 347 | 4.8 | 17.7 | 0.00 | 0.56 | 0.03 | 54 | 1007.0 |
| 20260507161354 | 16 | 270 | 6.4 | 20.9 | 0.00 | 0.56 | 0.03 | 55 | 1007.1 |
| 20260507160847 | 16 | 294 | 9.7 | 17.7 | 0.00 | 0.56 | 0.03 | 57 | 1007.1 |
| 20260507160321 | 15 | 327 | 4.8 | 17.7 | 0.00 | 0.56 | 0.03 | 56 | 1007.1 |
| 20260507155838 | 15 | 290 | 8.0 | 14.5 | 0.00 | 0.56 | 0.03 | 54 | 1007.2 |
| 20260507155335 | 15 | 289 | 4.8 | 12.9 | 0.00 | 0.56 | 0.03 | 59 | 1007.2 |
| 20260507154855 | 15 | 269 | 6.4 | 16.1 | 0.00 | 0.56 | 0.03 | 56 | 1007.4 |
| 20260507154326 | 15 | 290 | 8.0 | 19.3 | 0.00 | 0.56 | 0.03 | 54 | 1007.4 |
| 20260507153910 | 15 | 309 | 11.3 | 19.3 | 0.00 | 0.56 | 0.03 | 54 | 1007.5 |
| 20260507153345 | 15 | 314 | 6.4 | 19.3 | 0.00 | 0.56 | 0.03 | 57 | 1007.5 |
| 20260507152822 | 15 | 305 | 6.4 | 19.3 | 0.00 | 0.56 | 0.03 | 58 | 1007.7 |
| 20260507152407 | 15 | 290 | 11.3 | 19.3 | 0.00 | 0.56 | 0.03 | 55 | 1007.7 |
| 20260507151841 | 15 | 310 | 9.7 | 16.1 | 0.00 | 0.56 | 0.03 | 53 | 1007.7 |
| 20260507151358 | 15 | 319 | 9.7 | 16.1 | 0.00 | 0.56 | 0.03 | 55 | 1007.8 |
| 20260507150853 | 15 | 301 | 6.4 | 19.3 | 0.03 | 0.56 | 0.03 | 55 | 1007.7 |
| 20260507150325 | 14 | 315 | 6.4 | 19.3 | 0.03 | 0.56 | 0.03 | 57 | 1007.9 |
| 20260507145906 | 14 | 311 | 11.3 | 17.7 | 0.03 | 0.56 | 0.03 | 55 | 1008.0 |
| 20260507145321 | 14 | 215 | 3.2 | 22.5 | 0.03 | 0.56 | 0.03 | 57 | 1007.9 |
| 20260507144839 | 14 | 284 | 11.3 | 22.5 | 0.03 | 0.56 | 0.03 | 55 | 1008.1 |
| 20260507144355 | 15 | 329 | 6.4 | 24.1 | 0.03 | 0.56 | 0.03 | 56 | 1007.9 |
| 20260507143828 | 15 | 321 | 11.3 | 19.3 | 0.03 | 0.56 | 0.03 | 55 | 1008.0 |
| 20260507143410 | 15 | 309 | 11.3 | 16.1 | 0.03 | 0.56 | 0.03 | 54 | 1008.0 |
| 20260507142825 | 15 | 257 | 8.0 | 16.1 | 0.03 | 0.56 | 0.03 | 56 | 1008.0 |
| 20260507142323 | 15 | 305 | 8.0 | 16.1 | 0.03 | 0.56 | 0.03 | 56 | 1007.9 |
| 20260507141821 | 14 | 325 | 8.0 | 16.1 | 0.03 | 0.56 | 0.03 | 58 | 1007.8 |
| 20260507141338 | 15 | 302 | 6.4 | 16.1 | 0.00 | 0.53 | 0.00 | 59 | 1007.7 |
| 20260507140900 | 14 | 309 | 8.0 | 16.1 | 0.00 | 0.53 | 0.00 | 59 | 1007.8 |
| 20260507140353 | 14 | 303 | 3.2 | 16.1 | 0.00 | 0.53 | 0.00 | 59 | 1007.6 |
| 20260507135917 | 14 | 317 | 8.0 | 14.5 | 0.00 | 0.53 | 0.00 | 58 | 1007.8 |
| 20260507135351 | 14 | 288 | 4.8 | 12.9 | 0.00 | 0.53 | 0.00 | 59 | 1007.8 |
| 20260507134827 | 13 | 302 | 6.4 | 12.9 | 0.00 | 0.53 | 0.00 | 60 | 1007.8 |
| 20260507134340 | 13 | 309 | 3.2 | 8.0 | 0.00 | 0.53 | 0.00 | 61 | 1007.9 |
| 20260507133924 | 13 | 347 | 3.2 | 12.9 | 0.00 | 0.53 | 0.00 | 58 | 1008.0 |
| 20260507133358 | 13 | 318 | 4.8 | 9.7 | 0.00 | 0.53 | 0.00 | 60 | 1008.1 |
| 20260507132833 | 13 | 311 | 6.4 | 9.7 | 0.00 | 0.53 | 0.00 | 60 | 1008.3 |
| 20260507132351 | 13 | 329 | 3.2 | 8.0 | 0.00 | 0.53 | 0.00 | 63 | 1008.3 |
| 20260507131914 | 13 | 323 | 3.2 | 11.3 | 0.00 | 0.53 | 0.00 | 63 | 1008.4 |
| 20260507131348 | 12 | 291 | 4.8 | 12.9 | 0.00 | 0.53 | 0.00 | 63 | 1008.4 |
| 20260507130845 | 12 | 298 | 3.2 | 6.4 | 0.00 | 0.53 | 0.00 | 64 | 1008.4 |
| 20260507130338 | 12 | 294 | 1.6 | 6.4 | 0.00 | 0.53 | 0.00 | 65 | 1008.5 |
| 20260507125835 | 12 | 260 | 1.6 | 8.0 | 0.00 | 0.53 | 0.00 | 66 | 1008.6 |
| 20260507125333 | 12 | 276 | 3.2 | 12.9 | 0.00 | 0.53 | 0.00 | 66 | 1008.5 |
| 20260507124914 | 12 | 310 | 3.2 | 11.3 | 0.00 | 0.53 | 0.00 | 66 | 1008.6 |
| 20260507124350 | 11 | 309 | 3.2 | 16.1 | 0.00 | 0.53 | 0.00 | 66 | 1008.6 |
| 20260507123913 | 11 | 282 | 3.2 | 8.0 | 0.00 | 0.53 | 0.00 | 68 | 1008.6 |
| 20260507123327 | 11 | 296 | 3.2 | 8.0 | 0.00 | 0.53 | 0.00 | 69 | 1008.6 |
| 20260507122825 | 11 | 303 | 4.8 | 11.3 | 0.00 | 0.53 | 0.00 | 71 | 1008.6 |
| 20260507122410 | 11 | 299 | 6.4 | 11.3 | 0.00 | 0.53 | 0.00 | 71 | 1008.8 |
| 20260507121824 | 11 | 269 | 3.2 | 8.0 | 0.00 | 0.53 | 0.00 | 72 | 1008.8 |
| 20260507121321 | 10 | 294 | 1.6 | 9.7 | 0.00 | 0.53 | 0.00 | 74 | 1008.7 |
| 20260507120818 | 10 | 309 | 3.2 | 8.0 | 0.00 | 0.53 | 0.00 | 75 | 1008.7 |
| 20260507120352 | 10 | 266 | 3.2 | 8.0 | 0.00 | 0.53 | 0.00 | 76 | 1008.7 |
| 20260507115848 | 10 | 308 | 4.8 | 11.3 | 0.00 | 0.53 | 0.00 | 76 | 1008.6 |
| 20260507115411 | 10 | 234 | 4.8 | 8.0 | 0.00 | 0.53 | 0.00 | 78 | 1008.8 |
| 20260507114846 | 10 | 313 | 0.0 | 1.6 | 0.00 | 0.53 | 0.00 | 80 | 1008.7 |
| 20260507114322 | 9 | 311 | 0.0 | 1.6 | 0.00 | 0.53 | 0.00 | 80 | 1008.7 |
| 20260507113820 | 9 | 309 | 0.0 | 0.0 | 0.00 | 0.53 | 0.00 | 80 | 1008.4 |
| 20260507113333 | 9 | 310 | 0.0 | 0.0 | 0.00 | 0.53 | 0.00 | 80 | 1008.5 |
| 20260507112851 | 9 | 310 | 0.0 | 3.2 | 0.00 | 0.53 | 0.00 | 80 | 1008.4 |
| 20260507112327 | 9 | 309 | 0.0 | 3.2 | 0.00 | 0.53 | 0.00 | 80 | 1008.5 |
| 20260507111844 | 9 | 309 | 0.0 | 4.8 | 0.00 | 0.53 | 0.00 | 80 | 1008.6 |
| 20260507111320 | 9 | 310 | 1.6 | 4.8 | 0.00 | 0.53 | 0.00 | 81 | 1008.7 |
| 20260507110839 | 8 | 311 | 1.6 | 4.8 | 0.00 | 0.53 | 0.00 | 81 | 1008.7 |
| 20260507110353 | 8 | 311 | 0.0 | 1.6 | 0.00 | 0.53 | 0.00 | 82 | 1008.4 |
| 20260507105918 | 8 | 311 | 0.0 | 4.8 | 0.00 | 0.53 | 0.00 | 83 | 1008.5 |
| 20260507105353 | 8 | 311 | 0.0 | 4.8 | 0.00 | 0.53 | 0.00 | 83 | 1008.1 |
| 20260507104918 | 8 | 308 | 0.0 | 12.9 | 0.00 | 0.53 | 0.00 | 83 | 1008.3 |
| 20260507104334 | 8 | 308 | 1.6 | 12.9 | 0.00 | 0.53 | 0.00 | 84 | 1008.1 |
| 20260507103851 | 8 | 12 | 0.0 | 4.8 | 0.00 | 0.53 | 0.00 | 84 | 1008.2 |
| 20260507103410 | 8 | 12 | 1.6 | 4.8 | 0.00 | 0.53 | 0.00 | 84 | 1008.0 |
| 20260507102846 | 8 | 330 | 1.6 | 4.8 | 0.00 | 0.53 | 0.00 | 84 | 1007.9 |
| 20260507102321 | 8 | 332 | 0.0 | 0.0 | 0.00 | 0.53 | 0.00 | 84 | 1008.2 |
| 20260507101818 | 8 | 332 | 0.0 | 0.0 | 0.00 | 0.53 | 0.00 | 84 | 1008.0 |
| 20260507101316 | 8 | 332 | 0.0 | 1.6 | 0.00 | 0.53 | 0.00 | 84 | 1008.2 |
| 20260507100834 | 8 | 332 | 0.0 | 3.2 | 0.00 | 0.53 | 0.00 | 84 | 1008.2 |
| 20260507100329 | 8 | 332 | 0.0 | 6.4 | 0.00 | 0.53 | 0.00 | 84 | 1008.1 |
| 20260507095848 | 8 | 327 | 1.6 | 6.4 | 0.00 | 0.53 | 0.00 | 84 | 1008.5 |
| 20260507095324 | 8 | 298 | 1.6 | 8.0 | 0.00 | 0.53 | 0.00 | 84 | 1007.9 |
| 20260507094821 | 8 | 298 | 1.6 | 8.0 | 0.00 | 0.53 | 0.00 | 84 | 1008.1 |
| 20260507094319 | 8 | 313 | 1.6 | 4.8 | 0.00 | 0.53 | 0.00 | 85 | 1008.3 |
| 20260507093902 | 8 | 313 | 1.6 | 8.0 | 0.00 | 0.53 | 0.00 | 85 | 1008.2 |
| 20260507093359 | 8 | 313 | 3.2 | 8.0 | 0.00 | 0.53 | 0.00 | 85 | 1007.9 |
| 20260507092816 | 8 | 325 | 3.2 | 6.4 | 0.00 | 0.53 | 0.00 | 85 | 1008.0 |
| 20260507092333 | 8 | 303 | 1.6 | 9.7 | 0.00 | 0.53 | 0.00 | 85 | 1008.0 |
| 20260507091828 | 9 | 326 | 3.2 | 12.9 | 0.00 | 0.53 | 0.00 | 85 | 1008.0 |
| 20260507091346 | 9 | 330 | 4.8 | 8.0 | 0.00 | 0.53 | 0.00 | 85 | 1008.1 |
| 20260507090822 | 9 | 287 | 3.2 | 9.7 | 0.00 | 0.53 | 0.00 | 85 | 1007.6 |
| 20260507090337 | 9 | 307 | 6.4 | 11.3 | 0.00 | 0.53 | 0.00 | 85 | 1007.8 |
| 20260507085855 | 9 | 289 | 3.2 | 11.3 | 0.00 | 0.53 | 0.00 | 85 | 1007.6 |
| 20260507085350 | 9 | 321 | 4.8 | 11.3 | 0.00 | 0.53 | 0.00 | 84 | 1007.8 |
| 20260507084847 | 9 | 295 | 3.2 | 6.4 | 0.00 | 0.53 | 0.00 | 84 | 1007.9 |
| 20260507084323 | 9 | 299 | 3.2 | 6.4 | 0.00 | 0.53 | 0.00 | 84 | 1007.3 |
| 20260507083820 | 9 | 298 | 3.2 | 8.0 | 0.00 | 0.53 | 0.00 | 84 | 1007.3 |
| 20260507083316 | 10 | 330 | 1.6 | 8.0 | 0.00 | 0.53 | 0.00 | 83 | 1007.3 |
| 20260507082917 | 10 | 298 | 4.8 | 12.9 | 0.00 | 0.53 | 0.00 | 83 | 1007.6 |
| 20260507082353 | 10 | 336 | 4.8 | 16.1 | 0.00 | 0.53 | 0.00 | 82 | 1007.6 |
| 20260507081849 | 10 | 308 | 9.7 | 16.1 | 0.00 | 0.53 | 0.00 | 82 | 1007.3 |
| 20260507081325 | 10 | 290 | 6.4 | 12.9 | 0.00 | 0.53 | 0.00 | 82 | 1007.1 |
| 20260507080821 | 10 | 288 | 3.2 | 14.5 | 0.00 | 0.53 | 0.00 | 81 | 1007.3 |
| 20260507080358 | 10 | 321 | 6.4 | 16.1 | 0.00 | 0.53 | 0.00 | 81 | 1007.6 |
| 20260507075835 | 10 | 296 | 3.2 | 14.5 | 0.00 | 0.53 | 0.00 | 81 | 1007.6 |
| 20260507075333 | 10 | 327 | 6.4 | 14.5 | 0.00 | 0.53 | 0.00 | 81 | 1007.7 |
| 20260507074831 | 10 | 281 | 6.4 | 16.1 | 0.00 | 0.53 | 0.00 | 82 | 1007.6 |
| 20260507074348 | 10 | 307 | 9.7 | 16.1 | 0.00 | 0.53 | 0.00 | 81 | 1007.3 |
| 20260507073845 | 10 | 309 | 3.2 | 14.5 | 0.00 | 0.53 | 0.00 | 82 | 1007.3 |
| 20260507073320 | 10 | 320 | 4.8 | 19.3 | 0.00 | 0.53 | 0.00 | 82 | 1007.3 |
| 20260507072905 | 10 | 304 | 11.3 | 19.3 | 0.00 | 0.53 | 0.00 | 82 | 1007.2 |
| 20260507072322 | 10 | 281 | 6.4 | 16.1 | 0.00 | 0.53 | 0.00 | 82 | 1007.1 |
| 20260507071817 | 10 | 297 | 6.4 | 17.7 | 0.00 | 0.53 | 0.00 | 82 | 1007.2 |
| 20260507071358 | 10 | 327 | 6.4 | 17.7 | 0.00 | 0.53 | 0.00 | 82 | 1007.2 |
| 20260507070835 | 10 | 294 | 6.4 | 17.7 | 0.00 | 0.53 | 0.00 | 83 | 1007.3 |
| 20260507070328 | 10 | 292 | 9.7 | 17.7 | 0.00 | 0.53 | 0.00 | 83 | 1007.3 |
| 20260507065911 | 11 | 280 | 6.4 | 11.3 | 0.00 | 0.53 | 0.00 | 83 | 1007.0 |
| 20260507065413 | 11 | 304 | 3.2 | 8.0 | 0.00 | 0.53 | 0.00 | 84 | 1006.8 |
| 20260507064827 | 11 | 339 | 4.8 | 11.3 | 0.00 | 0.53 | 0.00 | 84 | 1007.2 |
| 20260507064325 | 11 | 272 | 6.4 | 11.3 | 0.00 | 0.53 | 0.00 | 84 | 1007.0 |
| 20260507063842 | 11 | 275 | 4.8 | 11.3 | 0.00 | 0.53 | 0.00 | 83 | 1006.7 |
| 20260507063319 | 11 | 312 | 4.8 | 14.5 | 0.00 | 0.53 | 0.00 | 83 | 1006.7 |
| 20260507062901 | 11 | 296 | 4.8 | 12.9 | 0.00 | 0.53 | 0.00 | 83 | 1006.7 |
| 20260507062403 | 11 | 310 | 3.2 | 8.0 | 0.00 | 0.53 | 0.00 | 83 | 1006.7 |
| 20260507061901 | 11 | 316 | 3.2 | 14.5 | 0.00 | 0.53 | 0.00 | 82 | 1006.7 |
| 20260507061358 | 11 | 305 | 6.4 | 14.5 | 0.00 | 0.53 | 0.00 | 82 | 1006.6 |
| 20260507060851 | 11 | 300 | 4.8 | 14.5 | 0.00 | 0.53 | 0.00 | 82 | 1006.8 |
| 20260507060323 | 11 | 301 | 8.0 | 14.5 | 0.00 | 0.53 | 0.00 | 82 | 1006.8 |
| 20260507055816 | 11 | 306 | 3.2 | 14.5 | 0.00 | 0.53 | 0.00 | 82 | 1006.8 |
| 20260507055333 | 11 | 296 | 4.8 | 14.5 | 0.00 | 0.53 | 0.00 | 82 | 1007.1 |
| 20260507054852 | 11 | 288 | 6.4 | 19.3 | 0.00 | 0.53 | 0.00 | 82 | 1007.2 |
| 20260507054414 | 11 | 313 | 6.4 | 16.1 | 0.00 | 0.53 | 0.00 | 82 | 1007.3 |
| 20260507053849 | 11 | 311 | 4.8 | 16.1 | 0.00 | 0.53 | 0.00 | 81 | 1007.2 |
| 20260507053323 | 11 | 296 | 8.0 | 16.1 | 0.00 | 0.53 | 0.00 | 82 | 1007.0 |
| 20260507052820 | 11 | 295 | 9.7 | 16.1 | 0.00 | 0.53 | 0.00 | 82 | 1007.2 |
| 20260507052318 | 11 | 261 | 4.8 | 14.5 | 0.00 | 0.53 | 0.00 | 82 | 1007.4 |
| 20260507051834 | 11 | 275 | 8.0 | 14.5 | 0.00 | 0.53 | 0.00 | 82 | 1007.3 |
| 20260507051352 | 11 | 336 | 4.8 | 16.1 | 0.00 | 0.53 | 0.00 | 82 | 1007.1 |
| 20260507050828 | 11 | 321 | 3.2 | 16.1 | 0.00 | 0.53 | 0.00 | 82 | 1006.9 |
| 20260507050325 | 11 | 313 | 6.4 | 12.9 | 0.00 | 0.53 | 0.00 | 83 | 1006.8 |
| 20260507045820 | 11 | 320 | 6.4 | 19.3 | 0.00 | 0.53 | 0.00 | 83 | 1007.1 |
| 20260507045338 | 12 | 310 | 6.4 | 19.3 | 0.00 | 0.53 | 0.00 | 83 | 1006.9 |
| 20260507044834 | 12 | 303 | 8.0 | 14.5 | 0.00 | 0.53 | 0.00 | 83 | 1006.9 |
| 20260507044417 | 12 | 282 | 6.4 | 17.7 | 0.00 | 0.53 | 0.00 | 84 | 1006.8 |
| 20260507043851 | 12 | 301 | 9.7 | 20.9 | 0.00 | 0.53 | 0.00 | 84 | 1006.8 |
| 20260507043345 | 12 | 312 | 8.0 | 20.9 | 0.00 | 0.53 | 0.00 | 85 | 1007.0 |
| 20260507042841 | 12 | 286 | 9.7 | 19.3 | 0.00 | 0.53 | 0.00 | 85 | 1007.0 |
| 20260507042318 | 12 | 267 | 8.0 | 17.7 | 0.00 | 0.53 | 0.00 | 86 | 1007.3 |
| 20260507041901 | 12 | 315 | 9.7 | 17.7 | 0.00 | 0.53 | 0.00 | 86 | 1007.2 |
| 20260507041358 | 12 | 290 | 8.0 | 14.5 | 0.00 | 0.53 | 0.00 | 87 | 1007.1 |
| 20260507040901 | 12 | 307 | 6.4 | 12.9 | 0.00 | 0.53 | 0.00 | 87 | 1006.8 |
| 20260507040422 | 12 | 325 | 4.8 | 19.3 | 0.00 | 0.53 | 0.00 | 87 | 1006.7 |
| 20260507035917 | 13 | 294 | 6.4 | 19.3 | 0.00 | 0.53 | 0.00 | 88 | 1006.6 |
| 20260507035333 | 13 | 293 | 6.4 | 17.7 | 0.00 | 0.53 | 0.53 | 88 | 1006.6 |
| 20260507034911 | 13 | 309 | 9.7 | 17.7 | 0.00 | 0.53 | 0.53 | 88 | 1006.5 |
| 20260507034414 | 13 | 270 | 6.4 | 17.7 | 0.00 | 0.53 | 0.53 | 89 | 1006.3 |
| 20260507033828 | 14 | 301 | 6.4 | 16.1 | 0.00 | 0.53 | 0.53 | 89 | 1006.3 |
| 20260507033413 | 14 | 318 | 4.8 | 12.9 | 0.00 | 0.53 | 0.53 | 89 | 1006.2 |
| 20260507032829 | 14 | 300 | 4.8 | 20.9 | 0.00 | 0.53 | 0.53 | 89 | 1006.1 |
| 20260507032327 | 14 | 302 | 11.3 | 32.2 | 0.00 | 0.53 | 0.53 | 89 | 1006.2 |
| 20260507031909 | 14 | 305 | 12.9 | 32.2 | 0.00 | 0.53 | 0.53 | 89 | 1006.1 |
| 20260507031324 | 15 | 319 | 14.5 | 22.5 | 0.00 | 0.53 | 0.53 | 89 | 1006.2 |
| 20260507030841 | 15 | 325 | 6.4 | 14.5 | 0.00 | 0.53 | 0.53 | 90 | 1005.9 |
| 20260507030338 | 15 | 253 | 3.2 | 14.5 | 0.00 | 0.53 | 0.53 | 90 | 1005.7 |
| 20260507025832 | 15 | 226 | 4.8 | 12.9 | 0.00 | 0.53 | 0.53 | 90 | 1005.7 |
| 20260507025329 | 15 | 195 | 4.8 | 12.9 | 0.00 | 0.53 | 0.53 | 90 | 1005.7 |
| 20260507024828 | 15 | 185 | 3.2 | 11.3 | 0.00 | 0.53 | 0.53 | 90 | 1005.7 |
| 20260507024345 | 15 | 262 | 3.2 | 12.9 | 0.00 | 0.53 | 0.53 | 90 | 1005.7 |
| 20260507023821 | 15 | 174 | 4.8 | 12.9 | 0.00 | 0.53 | 0.53 | 90 | 1005.7 |
| 20260507023405 | 15 | 211 | 4.8 | 14.5 | 0.00 | 0.53 | 0.53 | 90 | 1005.6 |
| 20260507022822 | 15 | 186 | 8.0 | 14.5 | 0.00 | 0.53 | 0.53 | 90 | 1005.5 |
| 20260507022335 | 15 | 173 | 4.8 | 12.9 | 0.00 | 0.53 | 0.53 | 90 | 1005.5 |
| 20260507021853 | 15 | 188 | 4.8 | 14.5 | 0.00 | 0.53 | 0.53 | 90 | 1005.7 |
| 20260507021330 | 15 | 195 | 8.0 | 14.5 | 0.00 | 0.53 | 0.53 | 90 | 1005.5 |
| 20260507020847 | 15 | 217 | 9.7 | 14.5 | 0.00 | 0.53 | 0.53 | 90 | 1005.7 |
| 20260507020341 | 15 | 170 | 4.8 | 12.9 | 0.00 | 0.53 | 0.53 | 90 | 1005.7 |
| 20260507015817 | 15 | 192 | 8.0 | 16.1 | 0.00 | 0.53 | 0.53 | 90 | 1005.7 |
| 20260507015357 | 15 | 271 | 6.4 | 16.1 | 0.03 | 0.53 | 0.53 | 90 | 1005.8 |
| 20260507014853 | 15 | 253 | 4.8 | 12.9 | 0.03 | 0.53 | 0.53 | 90 | 1006.0 |
| 20260507014352 | 15 | 182 | 4.8 | 16.1 | 0.03 | 0.53 | 0.53 | 90 | 1005.9 |
| 20260507013849 | 15 | 206 | 6.4 | 11.3 | 0.03 | 0.53 | 0.53 | 90 | 1005.9 |
| 20260507013325 | 15 | 172 | 8.0 | 14.5 | 0.03 | 0.53 | 0.53 | 90 | 1005.9 |
| 20260507012823 | 15 | 161 | 4.8 | 12.9 | 0.03 | 0.53 | 0.53 | 90 | 1005.9 |
| 20260507012339 | 15 | 190 | 6.4 | 12.9 | 0.03 | 0.53 | 0.53 | 90 | 1005.9 |
| 20260507011857 | 15 | 233 | 4.8 | 14.5 | 0.03 | 0.53 | 0.53 | 90 | 1006.0 |
| 20260507011332 | 15 | 209 | 6.4 | 16.1 | 0.03 | 0.53 | 0.53 | 90 | 1005.9 |
| 20260507010829 | 15 | 197 | 9.7 | 19.3 | 0.03 | 0.53 | 0.53 | 90 | 1006.1 |
| 20260507010322 | 15 | 177 | 9.7 | 16.1 | 0.03 | 0.53 | 0.53 | 90 | 1006.0 |
| 20260507005819 | 15 | 192 | 9.7 | 16.1 | 0.03 | 0.53 | 0.53 | 90 | 1006.0 |
| 20260507005317 | 15 | 176 | 4.8 | 16.1 | 0.00 | 0.51 | 0.51 | 90 | 1006.0 |
| 20260507004833 | 15 | 232 | 8.0 | 12.9 | 0.00 | 0.51 | 0.51 | 90 | 1005.8 |
| 20260507004330 | 15 | 195 | 6.4 | 14.5 | 0.00 | 0.51 | 0.51 | 90 | 1005.9 |
| 20260507003827 | 15 | 223 | 6.4 | 16.1 | 0.00 | 0.51 | 0.51 | 90 | 1005.9 |
| 20260507003324 | 15 | 165 | 6.4 | 17.7 | 0.03 | 0.51 | 0.51 | 90 | 1005.9 |
| 20260507002822 | 15 | 167 | 8.0 | 16.1 | 0.05 | 0.51 | 0.51 | 90 | 1005.8 |
| 20260507002319 | 15 | 195 | 8.0 | 16.1 | 0.08 | 0.51 | 0.51 | 90 | 1005.7 |
| 20260507001839 | 15 | 207 | 8.0 | 16.1 | 0.08 | 0.51 | 0.51 | 90 | 1005.7 |
| 20260507001358 | 15 | 197 | 9.7 | 16.1 | 0.08 | 0.51 | 0.51 | 90 | 1005.8 |
| 20260507000901 | 15 | 193 | 9.7 | 16.1 | 0.08 | 0.51 | 0.51 | 90 | 1005.7 |
| 20260507000335 | 15 | 178 | 9.7 | 16.1 | 0.10 | 0.51 | 0.51 | 90 | 1005.8 |
| 20260506235831 | 15 | 191 | 8.0 | 19.3 | 0.10 | 0.51 | 0.51 | 90 | 1005.8 |
| 20260506235417 | 15 | 177 | 8.0 | 19.3 | 0.10 | 0.51 | 0.51 | 90 | 1005.6 |
| 20260506234831 | 15 | 177 | 8.0 | 14.5 | 0.10 | 0.51 | 0.51 | 90 | 1005.7 |
| 20260506234348 | 15 | 209 | 8.0 | 14.5 | 0.10 | 0.51 | 0.51 | 90 | 1005.6 |
| 20260506233846 | 15 | 190 | 9.7 | 17.7 | 0.13 | 0.51 | 0.51 | 90 | 1005.8 |
| 20260506233321 | 15 | 157 | 11.3 | 17.7 | 0.10 | 0.48 | 0.48 | 90 | 1005.7 |
| 20260506232905 | 15 | 161 | 8.0 | 24.1 | 0.08 | 0.46 | 0.46 | 90 | 1005.7 |
| 20260506232318 | 15 | 191 | 12.9 | 24.1 | 0.05 | 0.43 | 0.43 | 90 | 1005.7 |
| 20260506231901 | 15 | 170 | 14.5 | 17.7 | 0.05 | 0.43 | 0.43 | 90 | 1005.8 |
| 20260506231419 | 15 | 129 | 12.9 | 16.1 | 0.08 | 0.43 | 0.43 | 90 | 1005.8 |
| 20260506230854 | 15 | 176 | 11.3 | 16.1 | 0.08 | 0.43 | 0.43 | 90 | 1006.0 |
| 20260506230327 | 15 | 185 | 9.7 | 17.7 | 0.05 | 0.41 | 0.41 | 90 | 1005.9 |
| 20260506225844 | 15 | 170 | 8.0 | 17.7 | 0.08 | 0.41 | 0.41 | 89 | 1005.9 |
| 20260506225408 | 15 | 180 | 9.7 | 17.7 | 0.08 | 0.41 | 0.41 | 90 | 1005.8 |
| 20260506224840 | 15 | 176 | 11.3 | 16.1 | 0.08 | 0.41 | 0.41 | 90 | 1006.0 |